Weather History for KARG - February, 2014

Change the Weather History Date:

Tuesday, February 25, 2014

  Actual Average Record
Temperature  
Mean Temperature 38 °F -  
Max Temperature 46 °F 49 °F 64 °F (1998)
Min Temperature 30 °F 34 °F 19 °F (2003)
Degree Days  
Heating Degree Days 27    
Moisture  
Dew Point 22 °F    
Average Humidity 55    
Maximum Humidity 70    
Minimum Humidity 37    
Precipitation  
Precipitation 0.00 in - - ()
Sea Level Pressure  
Sea Level Pressure 30.19 in    
Wind  
Wind Speed 10 mph (NE)    
Max Wind Speed 17 mph    
Max Gust Speed 23 mph    
Visibility 10 miles    
Events      
Averages and records for this station are not official NWS values.
T = Trace of Precipitation, MM = Missing Value Source: NWS Daily Summary

Daily Weather History Graph

Daily Weather History Graph

Search for Another Location

Airport or City:

Trip Planner

Search our weather history database for the weather conditions in past years. The results will help you decide how hot, cold, wet, or windy it might be!

Date:

Astronomy

Feb. 25, 2014 Rise Set
Actual Time 6:39 AM CST 5:54 PM CST
Civil Twilight 6:13 AM CST 6:20 PM CST
Nautical Twilight 5:43 AM CST 6:50 PM CST
Astronomical Twilight 5:13 AM CST 7:20 PM CST
Moon 3:29 AM CST (2/25) 2:05 PM CST (2/25)
Length of Visible Light 12h 07m
Length of Day
11h 15m
Waning Crescent, 18% of the Moon is Illuminated
Feb 25
Waning Crescent
Mar 1
New
Mar 8
First Quarter
Mar 16
Full
Mar 23
Last Quarter

Hourly Weather History & Observations

Time (CST) Temp. Windchill Dew Point Humidity Pressure Visibility Wind Dir Wind Speed Gust Speed Precip Events Conditions
12:15 AM 39.2 °F 33.6 °F 23.0 °F 52% 30.17 in 10.0 mi NE 8.1 mph - N/A   Overcast
12:35 AM 39.2 °F 33.0 °F 21.2 °F 49% 30.18 in 10.0 mi NE 9.2 mph - N/A   Overcast
12:55 AM 39.2 °F 32.0 °F 23.0 °F 52% 30.18 in 10.0 mi NE 11.5 mph - N/A   Overcast
1:15 AM 37.4 °F 29.3 °F 21.2 °F 52% 30.17 in 10.0 mi NE 12.7 mph - N/A   Overcast
1:35 AM 37.4 °F 30.8 °F 23.0 °F 56% 30.17 in 10.0 mi NE 9.2 mph - N/A   Overcast
1:55 AM 37.4 °F 32.1 °F 24.8 °F 60% 30.17 in 10.0 mi NE 6.9 mph - N/A   Overcast
2:15 AM 37.4 °F 32.8 °F 24.8 °F 60% 30.18 in 10.0 mi NNE 5.8 mph - N/A   Overcast
2:35 AM 35.6 °F 30.7 °F 21.2 °F 56% 30.18 in 10.0 mi NE 5.8 mph - N/A   Mostly Cloudy
2:55 AM 35.6 °F 30.7 °F 21.2 °F 56% 30.19 in 10.0 mi NNE 5.8 mph - N/A   Clear
3:15 AM 33.8 °F 27.7 °F 24.8 °F 70% 30.18 in 10.0 mi North 6.9 mph - N/A   Clear
3:35 AM 33.8 °F 28.6 °F 23.0 °F 65% 30.18 in 10.0 mi NNE 5.8 mph - N/A   Mostly Cloudy
3:55 AM 33.8 °F 27.7 °F 21.2 °F 60% 30.18 in 10.0 mi NNE 6.9 mph - N/A   Scattered Clouds
4:15 AM 32.0 °F 25.6 °F 21.2 °F 64% 30.18 in 10.0 mi North 6.9 mph - N/A   Clear
4:35 AM 32.0 °F 25.6 °F 21.2 °F 64% 30.18 in 10.0 mi North 6.9 mph - N/A   Clear
4:55 AM 32.0 °F 27.5 °F 19.4 °F 60% 30.18 in 10.0 mi North 4.6 mph - N/A   Clear
5:15 AM 30.2 °F 23.4 °F 19.4 °F 64% 30.19 in 10.0 mi North 6.9 mph - N/A   Clear
5:35 AM 32.0 °F 26.4 °F 19.4 °F 60% 30.19 in 10.0 mi NNE 5.8 mph - N/A   Clear
5:55 AM 30.2 °F 24.3 °F 19.4 °F 64% 30.20 in 10.0 mi NNE 5.8 mph - N/A   Clear
6:15 AM 30.2 °F 26.7 °F 19.4 °F 64% 30.20 in 10.0 mi North 3.5 mph - N/A   Clear
6:35 AM 30.2 °F 26.7 °F 21.2 °F 69% 30.20 in 10.0 mi NNE 3.5 mph - N/A   Clear
6:55 AM 30.2 °F 26.7 °F 21.2 °F 69% 30.20 in 10.0 mi North 3.5 mph - N/A   Clear
7:15 AM 30.2 °F 23.4 °F 21.2 °F 69% 30.21 in 10.0 mi North 6.9 mph - N/A   Clear
7:35 AM 32.0 °F 25.6 °F 19.4 °F 60% 30.22 in 10.0 mi North 6.9 mph - N/A   Clear
7:55 AM 33.8 °F 25.3 °F 17.6 °F 52% 30.24 in 5.0 mi NNE 11.5 mph - N/A   Clear
8:15 AM 35.6 °F 27.5 °F 19.4 °F 52% 30.23 in 10.0 mi NE 11.5 mph - N/A   Clear
8:35 AM 35.6 °F 26.6 °F 21.2 °F 56% 30.23 in 10.0 mi NE 13.8 mph - N/A   Clear
8:55 AM 37.4 °F 29.3 °F 21.2 °F 52% 30.23 in 10.0 mi NE 12.7 mph - N/A   Clear
9:15 AM 37.4 °F 28.5 °F 19.4 °F 48% 30.24 in 10.0 mi ENE 15.0 mph - N/A   Clear
9:35 AM 37.4 °F 28.5 °F 21.2 °F 52% 30.24 in 10.0 mi ENE 15.0 mph - N/A   Clear
9:55 AM 39.2 °F 30.8 °F 21.2 °F 49% 30.24 in 10.0 mi ENE 15.0 mph - N/A   Clear
10:15 AM 39.2 °F 31.6 °F 21.2 °F 49% 30.24 in 10.0 mi ENE 12.7 mph 18.4 mph N/A   Clear
10:35 AM 39.2 °F 31.6 °F 21.2 °F 49% 30.24 in 10.0 mi NE 12.7 mph - N/A   Clear
10:55 AM 41.0 °F 34.3 °F 23.0 °F 49% 30.24 in 10.0 mi NE 11.5 mph 16.1 mph N/A   Clear
11:15 AM 42.8 °F 36.6 °F 24.8 °F 49% 30.24 in 10.0 mi NE 11.5 mph 16.1 mph N/A   Clear
11:35 AM 42.8 °F 37.0 °F 24.8 °F 49% 30.23 in 10.0 mi NNE 10.4 mph - N/A   Clear
11:55 AM 42.8 °F 34.8 °F 23.0 °F 46% 30.21 in 10.0 mi NE 17.3 mph 23.0 mph N/A   Clear
12:15 PM 42.8 °F 35.4 °F 23.0 °F 46% 30.21 in 10.0 mi NE 15.0 mph - N/A   Clear
12:35 PM 44.6 °F 38.1 °F 23.0 °F 43% 30.20 in 10.0 mi NNE 13.8 mph 19.6 mph N/A   Clear
12:55 PM 44.6 °F 38.8 °F 23.0 °F 43% 30.19 in 6.0 mi NNE 11.5 mph - N/A   Clear
1:15 PM 44.6 °F 38.1 °F 24.8 °F 46% 30.17 in 10.0 mi NNE 13.8 mph - N/A   Clear
1:35 PM 44.6 °F 39.2 °F 24.8 °F 46% 30.17 in 8.0 mi NNE 10.4 mph 18.4 mph N/A   Clear
1:55 PM 44.6 °F 38.4 °F 23.0 °F 43% 30.16 in 10.0 mi NE 12.7 mph 16.1 mph N/A   Clear
2:15 PM 46.4 °F 40.4 °F 24.8 °F 43% 30.16 in 9.0 mi NE 13.8 mph 17.3 mph N/A   Clear
2:35 PM 46.4 °F 41.9 °F 24.8 °F 43% 30.17 in 8.0 mi North 9.2 mph 16.1 mph N/A   Clear
2:55 PM 46.4 °F 40.4 °F 24.8 °F 43% 30.16 in 10.0 mi NE 13.8 mph - N/A   Clear
3:15 PM 46.4 °F 41.5 °F 24.8 °F 43% 30.16 in 10.0 mi NE 10.4 mph - N/A   Clear
3:35 PM 46.4 °F 41.1 °F 21.2 °F 37% 30.15 in 10.0 mi NE 11.5 mph 17.3 mph N/A   Clear
3:55 PM 46.4 °F 40.7 °F 23.0 °F 40% 30.15 in 10.0 mi ENE 12.7 mph - N/A   Clear
4:15 PM 44.6 °F 38.1 °F 24.8 °F 46% 30.15 in 10.0 mi NE 13.8 mph - N/A   Mostly Cloudy
4:35 PM 44.6 °F 38.1 °F 24.8 °F 46% 30.15 in 10.0 mi NE 13.8 mph - N/A   Overcast
4:55 PM 44.6 °F 38.4 °F 24.8 °F 46% 30.14 in 10.0 mi NE 12.7 mph 19.6 mph N/A   Overcast
5:15 PM 42.8 °F 35.4 °F 24.8 °F 49% 30.15 in 10.0 mi NE 15.0 mph - N/A   Overcast
5:35 PM 42.8 °F 36.2 °F 24.8 °F 49% 30.15 in 10.0 mi NE 12.7 mph - N/A   Overcast
5:55 PM 41.0 °F 33.9 °F 24.8 °F 53% 30.16 in 10.0 mi NE 12.7 mph - N/A   Overcast
6:15 PM 39.2 °F 30.2 °F 26.6 °F 61% 30.16 in 10.0 mi ENE 17.3 mph - N/A   Overcast
6:35 PM 39.2 °F 30.8 °F 24.8 °F 56% 30.17 in 10.0 mi ENE 15.0 mph - N/A   Overcast
6:55 PM 37.4 °F 29.8 °F 24.8 °F 60% 30.17 in 10.0 mi ENE 11.5 mph - N/A   Overcast
7:15 PM 37.4 °F 28.2 °F 24.8 °F 60% 30.18 in 10.0 mi ENE 16.1 mph 21.9 mph N/A   Overcast
7:35 PM 37.4 °F 28.9 °F 24.8 °F 60% 30.19 in 10.0 mi ENE 13.8 mph - N/A   Overcast
7:55 PM 35.6 °F 26.6 °F 23.0 °F 60% 30.19 in 10.0 mi ENE 13.8 mph - N/A   Partly Cloudy
8:15 PM 35.6 °F 26.6 °F 23.0 °F 60% 30.19 in 10.0 mi ENE 13.8 mph - N/A   Clear
8:35 PM 33.8 °F 24.8 °F 23.0 °F 65% 30.19 in 10.0 mi ENE 12.7 mph - N/A   Clear
8:55 PM 33.8 °F 25.8 °F 23.0 °F 65% 30.20 in 10.0 mi ENE 10.4 mph - N/A   Clear
9:15 PM 33.8 °F 26.4 °F 23.0 °F 65% 30.21 in 10.0 mi NE 9.2 mph - N/A   Clear
9:35 PM 33.8 °F 25.8 °F 23.0 °F 65% 30.22 in 10.0 mi NE 10.4 mph - N/A   Scattered Clouds
9:55 PM 33.8 °F 25.3 °F 23.0 °F 65% 30.22 in 10.0 mi NE 11.5 mph - N/A   Mostly Cloudy
10:15 PM 33.8 °F 25.8 °F 23.0 °F 65% 30.21 in 10.0 mi NE 10.4 mph - N/A   Overcast
10:35 PM 33.8 °F 24.3 °F 21.2 °F 60% 30.22 in 10.0 mi NE 13.8 mph - N/A   Overcast
10:55 PM 33.8 °F 23.9 °F 21.2 °F 60% 30.22 in 10.0 mi NNE 15.0 mph - N/A   Overcast
11:15 PM 33.8 °F 25.3 °F 19.4 °F 56% 30.23 in 10.0 mi NNE 11.5 mph 18.4 mph N/A   Overcast
11:35 PM 33.8 °F 24.3 °F 17.6 °F 52% 30.23 in 10.0 mi NNE 13.8 mph - N/A   Overcast
11:55 PM 33.8 °F 24.3 °F 15.8 °F 48% 30.23 in 10.0 mi North 13.8 mph - N/A   Overcast